Regional Weather Roundup
Issued by NWS

Home | Current Version | Previous Version | Text Only | Print | Product List | Glossary Off
Versions: 1 2 3 4 5 6 7 8 9 10 11 12 13 14 15 16 17 18 19 20 21 22 23 24 25 26 27 28 29 30 31 32 33 34 35 36 37 38 39 40 41 42 43 44 45 46 47 48 49 50

000
ASUS43 KDMX 230106
RWRIA

WEATHER ROUNDUP FOR IOWA
NATIONAL WEATHER SERVICE DES MOINES IA
800 PM CDT THU JUN 22 2017

NOTE: "FAIR" INDICATES FEW OR NO CLOUDS BELOW 12,000 FEET WITH NO
SIGNIFICANT WEATHER AND/OR OBSTRUCTIONS TO VISIBILITY.

* - THESE STATIONS ARE NOT NWS STATIONS...THUS NOT UNDER NWS
QUALITY CONTROL.  THEY ALSO DO NOT REPORT WEATHER SUCH
AS PRECIPITATION OR FOG.

IAZ001>003-012>014-020>022-031>034-043>046-230200-
   NORTHWEST IOWA

CITY           SKY/WX    TMP DP  RH WIND       PRES   REMARKS
CARROLL *      CLOUDY    82  70  65 N10       29.66R HX  86
CHEROKEE *     CLOUDY    69  64  81 NE12G20   29.74R
DENISON *      CLOUDY    82  68  61 N7        29.69R HX  85
LE MARS *      CLOUDY    73  64  73 N13G18    29.76R
ORANGE CITY *  CLOUDY    72  64  78 N8G17     29.76R
SHELDON *      MOCLDY    72  63  73 N18G25    29.75R
SIOUX CITY     CLOUDY    77  66  68 N15G24    29.72R
SPENCER        CLOUDY    70  62  76 N17       29.75R
STORM LAKE *   CLOUDY    72  64  78 N20G26    29.73R
$$

IAZ055>058-069>071-079>083-090>094-230200-
   SOUTHWEST IOWA

CITY           SKY/WX    TMP DP  RH WIND       PRES   REMARKS
ATLANTIC *     CLOUDY    84  70  61 S6        29.64S HX  88
AUDUBON *      CLOUDY    81  73  78 E3        29.65F HX  85
CLARINDA *     MOCLDY    84  72  65 S6        29.66S HX  89
COUNCIL BLFS * CLOUDY    84  75  74 CALM      29.65R HX  92
CRESTON *      PTCLDY    84  72  65 S6        29.68S HX  89
HARLAN  *      CLOUDY    79  72  78 N6        29.68R HX  82
LAMONI         MOCLDY    82  71  69 S9        29.68R HX  86
RED OAK *      CLOUDY    84  70  61 SE5       29.64S HX  88
SHENANDOAH *   CLOUDY    84  70  61 SE5       29.64R HX  88
$$

IAZ047>049-059>061-072>074-084-230200-
   CENTRAL IOWA

CITY           SKY/WX    TMP DP  RH WIND       PRES   REMARKS
AMES           MOCLDY    82  73  74 S5        29.65S HX  87
ANKENY *       CLOUDY    84  70  61 SW7       29.66S HX  88
BOONE *        PTCLDY    82  70  65 CALM      29.65S HX  86
CHARITON *     PTCLDY    82  70  65 S10G16    29.67S HX  86
DES MOINES     CLOUDY    85  70  60 SW8       29.65S HX  89
GRINNELL*      PTCLDY    80  70  71 S5        29.68S HX  83
KNOXVILLE *    MOCLDY    82  72  69 S6        29.66R HX  87
MARSHALLTOWN   CLEAR     81  73  76 SW5       29.66R HX  86
NEWTON *       CLOUDY    81  73  78 SE3       29.67S HX  85
PELLA *        PTCLDY    83  70  64 S6        29.67S HX  87
PERRY *        CLOUDY    84  66  54 SW5       29.66R HX  86
$$

IAZ004>006-015-016-023>025-035-036-230200-
   NORTH CENTRAL IOWA

CITY           SKY/WX    TMP DP  RH WIND       PRES   REMARKS
ALGONA *       CLOUDY    70  66  88 N15G21    29.73R
CLARION *        N/A     75  73  94 N17       29.68R
ESTHERVILLE    CLOUDY    67  63  87 N12       29.75R
FORT DODGE *   CLOUDY    75  66  73 N8        29.69R
FOREST CITY *  CLOUDY    72  61  68 N12       29.71R
WEBSTER CITY * PTCLDY    79  72  78 SW6       29.64S HX  82
IOWA FALLS *     N/A     82  69  65 S3        29.67F HX  85
$$

IAZ007>011-017>019-026>030-037>042-050>054-066-230200-
   NORTHEAST IOWA

CITY           SKY/WX    TMP DP  RH WIND       PRES   REMARKS
CEDAR RAPIDS   CLOUDY    80  73  79 S8        29.67R HX  84
CHARLES CITY * CLOUDY    75  75 100 E7        29.68F
CLINTON *      CLOUDY    79  73  82 S6        29.70S HX  82
DECORAH *      MOCLDY    70  68  94 E6        29.69F
DUBUQUE        MOCLDY    79  71  76 SW5       29.70S HX  82
MONTICELLO *   CLOUDY    81  73  78 S5        29.68R HX  85
OELWEIN *      CLOUDY    77  75  94 E3        29.69S
WATERLOO       CLOUDY    79  73  82 E7        29.65S HX  82
$$

IAZ064-065-067-068-078-230200-
   EAST CENTRAL IOWA

CITY           SKY/WX    TMP DP  RH WIND       PRES   REMARKS
DAVENPORT      CLOUDY    81  70  69 S6        29.70R HX  84
IOWA CITY      CLOUDY    83  71  67 S8        29.68F HX  87
MT. PLEASANT * MOCLDY    82  69  65 SW10      29.68R HX  85
MUSCATINE *    CLOUDY    82  72  69 SW5       29.69R HX  87
QUAD CITIES    CLOUDY    82  70  66 S8        29.68R HX  86
$$

IAZ062-063-075>077-085>089-095>099-230200-
   SOUTHEAST IOWA

CITY           SKY/WX    TMP DP  RH WIND       PRES   REMARKS
BURLINGTON     CLOUDY    80  73  79 S13       29.67F HX  84
FAIRFIELD *    PTCLDY    82  70  65 SW7       29.69R HX  86
FORT MADISON * CLOUDY    82  73  74 S9        29.69S HX  88
KEOKUK *       MOCLDY    82  72  69 S9G15     29.68R HX  87
OSKALOOSA *      N/A     82  71  69 S7        29.68R HX  86
CENTERVILLE *    N/A     81  72  74 S3        29.70R HX  84
OTTUMWA        MOCLDY    83  72  69 S6        29.67R HX  88
WASHINGTON *   CLOUDY    81  72  74 S6        29.70R HX  84
$$

ABBREVIATIONS USED IN REMARKS
   TC - TEMPERATURES IN CELSIUS
  WCI - WIND CHILL INDEX
   HX - HEAT INDEX
  VSB - VISIBILITY
$$





USA.gov is the U.S. government's official web portal to all federal, state and local government web resources and services.